This demonstration page uses our WeatherBlox Daily Observations layout. Learn more.

Left ArrowRight Arrow

38.20091, -84.87328

Hourly Observations for August 12, 2019

Temp ( °F °C ) Dew Point ( °F °C ) Humidity (%) Winds ( mph kmh ) Pressure ( in mb ) Visibility ( mi km ) Precip ( " mm )
12:53 am 00:53 Clear 70 21.1 62 16.7 76 76 Calm 29.96 1015 10 16 0.00 0.00
1:53 am 01:53 Clear 67 19.4 62 16.7 84 84 Calm 29.96 1015 10 16 0.00 0.00
2:53 am 02:53 Clear 66 18.9 62 16.7 87 87 Calm 29.96 1014 10 16 0.00 0.00
3:53 am 03:53 Clear 65 18.3 62 16.7 90 90 Calm 29.95 1014 10 16 0.00 0.00
4:53 am 04:53 Clear 67 19.4 63 17.2 87 87 Calm 29.94 1014 10 16 0.00 0.00
5:53 am 05:53 Clear 68 20 63 17.2 84 84 Calm 29.93 1014 10 16 0.00 0.00
6:53 am 06:53 Sunny 69 20.6 63 17.2 81 81 Calm 29.94 1014 10 16 0.00 0.00
7:53 am 07:53 Sunny 70 21.1 65 18.3 84 84 Calm 29.95 1014 10 16 0.00 0.00
8:53 am 08:53 Sunny 74 23.3 65 18.3 74 74 Calm 29.97 1015 10 16 0.00 0.00
9:53 am 09:53 Sunny 77 25 63 17.2 62 62 S 6 9 29.98 1015 10 16 0.00 0.00
10:53 am 10:53 Sunny 80 26.7 65 18.3 60 60 SSW 7 11 29.97 1015 10 16 0.00 0.00
11:53 am 11:53 Sunny 82 27.8 65 18.3 56 56 SSW 5 7 29.96 1015 10 16 0.00 0.00
12:53 pm 12:53 Mostly Cloudy 83 28.3 66 18.9 57 57 SW 6 9 29.96 1015 10 16 0.00 0.00
1:53 pm 13:53 Partly Cloudy 85 29.4 65 18.3 51 51 W 7 11 29.95 1014 10 16 0.00 0.00
2:53 pm 14:53 Sunny 87 30.6 65 18.3 48 48 WSW 8 13 29.91 1013 10 16 0.00 0.00
3:53 pm 15:53 Sunny 86 30 64 17.8 48 48 SW 9 15 29.87 1012 10 16 0.00 0.00
4:53 pm 16:53 Sunny 86 30 67 19.4 53 53 W 5 7 29.87 1012 10 16 0.00 0.00
5:53 pm 17:53 Sunny 87 30.6 68 20 53 53 SW 6 9 29.85 1011 10 16 0.00 0.00
6:53 pm 18:53 Sunny 87 30.6 66 18.9 50 50 SW 8 13 29.85 1011 10 16 0.00 0.00
7:53 pm 19:53 Sunny 83 28.3 63 17.2 51 51 SW 7 11 29.87 1012 10 16 0.00 0.00
8:53 pm 20:53 Clear 80 26.7 63 17.2 56 56 WSW 3 6 29.87 1011 10 16 0.00 0.00
9:53 pm 21:53 Mostly Cloudy 76 24.4 65 18.3 69 69 SSW 3 6 29.87 1012 10 16 0.00 0.00
10:53 pm 22:53 Mostly Cloudy 75 23.9 66 18.9 74 74 Calm 29.85 1011 10 16 0.00 0.00
11:53 pm 23:53 Mostly Clear 79 26.1 66 18.9 65 65 S 3 6 29.83 1010 10 16 0.00 0.00

Powered by AerisWeather